| time (UTC) | temp C | wind direction | speed KPH | gust KPH | rain 1hr cm | rain 24hr cm | rain mn cm | humidity % | barometer mb |
| 20260508213032 | 26 | 0.0 | 0.0 | 0.00 | 0.00 | 0.00 | 18 | 1015.2 | |
| 20260508211532 | 27 | 0.0 | 0.0 | 0.00 | 0.00 | 0.00 | 19 | 1015.4 | |
| 20260508210032 | 26 | 0.0 | 0.0 | 0.00 | 0.00 | 0.00 | 17 | 1015.5 | |
| 20260508204532 | 26 | 0.0 | 0.0 | 0.00 | 0.00 | 0.00 | 19 | 1015.7 | |
| 20260508203039 | 26 | 0.0 | 0.0 | 0.00 | 0.00 | 0.00 | 16 | 1015.9 | |
| 20260508201534 | 26 | 0.0 | 0.0 | 0.00 | 0.00 | 0.00 | 18 | 1015.8 | |
| 20260508200033 | 26 | 0.0 | 0.0 | 0.00 | 0.00 | 0.00 | 20 | 1015.9 | |
| 20260508194530 | 26 | 0.0 | 0.0 | 0.00 | 0.00 | 0.00 | 20 | 1016.0 | |
| 20260508193030 | 26 | 0.0 | 0.0 | 0.00 | 0.00 | 0.00 | 20 | 1016.0 | |
| 20260508191538 | 25 | 0.0 | 0.0 | 0.00 | 0.00 | 0.00 | 23 | 1016.2 | |
| 20260508190035 | 25 | 0.0 | 0.0 | 0.00 | 0.00 | 0.00 | 22 | 1016.4 | |
| 20260508184532 | 25 | 0.0 | 0.0 | 0.00 | 0.00 | 0.00 | 22 | 1016.5 | |
| 20260508183035 | 24 | 0.0 | 0.0 | 0.00 | 0.00 | 0.00 | 23 | 1016.6 | |
| 20260508181536 | 23 | 0.0 | 0.0 | 0.00 | 0.00 | 0.00 | 24 | 1016.6 | |
| 20260508180029 | 22 | 0.0 | 0.0 | 0.00 | 0.00 | 0.00 | 28 | 1016.6 | |
| 20260508174536 | 21 | 0.0 | 0.0 | 0.00 | 0.00 | 0.00 | 30 | 1016.8 | |
| 20260508173039 | 21 | 0.0 | 0.0 | 0.00 | 0.00 | 0.00 | 32 | 1016.8 | |
| 20260508171534 | 21 | 0.0 | 0.0 | 0.00 | 0.00 | 0.00 | 32 | 1016.7 | |
| 20260508170034 | 20 | 0.0 | 0.0 | 0.00 | 0.00 | 0.00 | 32 | 1016.6 | |
| 20260508164534 | 20 | 0.0 | 0.0 | 0.00 | 0.00 | 0.00 | 32 | 1016.6 | |
| 20260508163036 | 19 | 0.0 | 0.0 | 0.00 | 0.00 | 0.00 | 36 | 1016.5 | |
| 20260508161535 | 18 | 0.0 | 0.0 | 0.00 | 0.00 | 0.00 | 38 | 1016.5 | |
| 20260508160036 | 17 | 0.0 | 0.0 | 0.00 | 0.00 | 0.00 | 36 | 1016.3 | |
| 20260508154534 | 16 | 0.0 | 0.0 | 0.00 | 0.00 | 0.00 | 43 | 1016.3 | |
| 20260508153035 | 15 | 0.0 | 0.0 | 0.00 | 0.00 | 0.00 | 44 | 1016.3 | |
| 20260508151540 | 13 | 0.0 | 0.0 | 0.00 | 0.00 | 0.00 | 50 | 1016.1 | |
| 20260508150036 | 12 | 0.0 | 0.0 | 0.00 | 0.00 | 0.00 | 52 | 1016.0 | |
| 20260508144534 | 11 | 0.0 | 0.0 | 0.00 | 0.00 | 0.00 | 57 | 1016.0 | |
| 20260508143035 | 10 | 0.0 | 0.0 | 0.00 | 0.00 | 0.00 | 61 | 1016.0 | |
| 20260508141604 | 10 | 0.0 | 0.0 | 0.00 | 0.00 | 0.00 | 64 | 1015.9 | |
| 20260508140031 | 9 | 0.0 | 0.0 | 0.00 | 0.00 | 0.00 | 65 | 1015.8 | |
| 20260508134548 | 9 | 0.0 | 0.0 | 0.00 | 0.00 | 0.00 | 63 | 1015.7 | |
| 20260508133030 | 8 | 0.0 | 0.0 | 0.00 | 0.00 | 0.00 | 62 | 1015.5 | |
| 20260508131535 | 8 | 0.0 | 0.0 | 0.00 | 0.00 | 0.00 | 60 | 1015.4 | |
| 20260508130032 | 8 | 0.0 | 0.0 | 0.00 | 0.00 | 0.00 | 59 | 1015.3 | |
| 20260508124533 | 8 | 0.0 | 0.0 | 0.00 | 0.00 | 0.00 | 59 | 1015.1 | |
| 20260508123044 | 9 | 0.0 | 0.0 | 0.00 | 0.00 | 0.00 | 58 | 1014.9 | |
| 20260508121534 | 9 | 0.0 | 0.0 | 0.00 | 0.00 | 0.00 | 56 | 1014.7 | |
| 20260508120029 | 10 | 0.0 | 0.0 | 0.00 | 0.00 | 0.00 | 56 | 1014.7 | |
| 20260508114537 | 10 | 0.0 | 0.0 | 0.00 | 0.00 | 0.00 | 54 | 1014.6 | |
| 20260508113047 | 10 | 0.0 | 0.0 | 0.00 | 0.00 | 0.00 | 54 | 1014.5 | |
| 20260508111532 | 10 | 0.0 | 0.0 | 0.00 | 0.00 | 0.00 | 54 | 1014.5 | |
| 20260508110030 | 10 | 0.0 | 0.0 | 0.00 | 0.00 | 0.00 | 54 | 1014.6 | |
| 20260508104533 | 10 | 0.0 | 0.0 | 0.00 | 0.00 | 0.00 | 54 | 1014.6 | |
| 20260508103036 | 10 | 0.0 | 0.0 | 0.00 | 0.00 | 0.00 | 54 | 1014.4 | |
| 20260508101535 | 10 | 0.0 | 0.0 | 0.00 | 0.00 | 0.00 | 54 | 1014.4 | |
| 20260508100035 | 10 | 0.0 | 0.0 | 0.00 | 0.00 | 0.00 | 54 | 1014.4 | |
| 20260508094531 | 10 | 0.0 | 0.0 | 0.00 | 0.00 | 0.00 | 53 | 1014.3 | |
| 20260508093036 | 10 | 0.0 | 0.0 | 0.00 | 0.00 | 0.00 | 52 | 1014.1 | |
| 20260508091547 | 10 | 0.0 | 0.0 | 0.00 | 0.00 | 0.00 | 52 | 1013.8 | |
| 20260508090039 | 10 | 0.0 | 0.0 | 0.00 | 0.00 | 0.00 | 52 | 1013.8 | |
| 20260508084534 | 11 | 0.0 | 0.0 | 0.00 | 0.00 | 0.00 | 51 | 1013.9 | |
| 20260508083030 | 11 | 0.0 | 0.0 | 0.00 | 0.00 | 0.00 | 51 | 1014.0 | |
| 20260508081535 | 12 | 0.0 | 0.0 | 0.00 | 0.00 | 0.00 | 49 | 1013.9 | |
| 20260508080036 | 12 | 0.0 | 0.0 | 0.00 | 0.00 | 0.00 | 45 | 1014.0 | |
| 20260508074546 | 12 | 0.0 | 0.0 | 0.00 | 0.00 | 0.00 | 45 | 1014.1 | |
| 20260508073034 | 13 | 0.0 | 0.0 | 0.00 | 0.00 | 0.00 | 44 | 1013.8 | |
| 20260508071536 | 13 | 0.0 | 0.0 | 0.00 | 0.00 | 0.00 | 43 | 1013.8 | |
| 20260508070032 | 13 | 0.0 | 0.0 | 0.00 | 0.00 | 0.00 | 43 | 1013.8 | |
| 20260508064530 | 13 | 0.0 | 0.0 | 0.00 | 0.00 | 0.00 | 43 | 1013.7 | |
| 20260508063035 | 13 | 0.0 | 0.0 | 0.00 | 0.00 | 0.00 | 45 | 1013.8 | |
| 20260508061534 | 12 | 0.0 | 0.0 | 0.00 | 0.00 | 0.00 | 45 | 1013.8 | |
| 20260508060034 | 12 | 0.0 | 0.0 | 0.00 | 0.00 | 0.00 | 45 | 1013.7 | |
| 20260508054533 | 13 | 0.0 | 0.0 | 0.00 | 0.00 | 0.00 | 45 | 1013.6 | |
| 20260508053032 | 13 | 0.0 | 0.0 | 0.00 | 0.00 | 0.00 | 44 | 1013.6 | |
| 20260508051530 | 14 | 0.0 | 0.0 | 0.00 | 0.00 | 0.00 | 43 | 1013.4 | |
| 20260508050035 | 14 | 0.0 | 0.0 | 0.00 | 0.00 | 0.00 | 43 | 1013.4 | |
| 20260508044536 | 14 | 0.0 | 0.0 | 0.00 | 0.00 | 0.00 | 43 | 1013.3 | |
| 20260508043038 | 15 | 0.0 | 0.0 | 0.00 | 0.00 | 0.00 | 42 | 1013.3 | |
| 20260508041534 | 15 | 0.0 | 0.0 | 0.00 | 0.00 | 0.00 | 41 | 1013.4 | |
| 20260508040032 | 15 | 0.0 | 0.0 | 0.00 | 0.00 | 0.00 | 42 | 1013.4 | |
| 20260508034530 | 15 | 0.0 | 0.0 | 0.00 | 0.00 | 0.00 | 42 | 1013.2 | |
| 20260508033035 | 15 | 0.0 | 0.0 | 0.00 | 0.00 | 0.00 | 41 | 1013.2 | |
| 20260508031533 | 16 | 0.0 | 0.0 | 0.00 | 0.00 | 0.00 | 42 | 1013.2 | |
| 20260508030039 | 17 | 0.0 | 0.0 | 0.00 | 0.00 | 0.00 | 39 | 1013.0 | |
| 20260508024537 | 18 | 0.0 | 0.0 | 0.00 | 0.00 | 0.00 | 36 | 1012.9 | |
| 20260508023032 | 20 | 0.0 | 0.0 | 0.00 | 0.00 | 0.00 | 32 | 1012.8 | |
| 20260508021544 | 21 | 0.0 | 0.0 | 0.00 | 0.00 | 0.00 | 31 | 1012.8 | |
| 20260508020035 | 21 | 0.0 | 0.0 | 0.00 | 0.00 | 0.00 | 30 | 1012.6 | |
| 20260508014533 | 22 | 0.0 | 0.0 | 0.00 | 0.00 | 0.00 | 27 | 1012.7 | |
| 20260508013040 | 22 | 0.0 | 0.0 | 0.00 | 0.00 | 0.00 | 26 | 1012.6 | |
| 20260508011536 | 22 | 0.0 | 0.0 | 0.00 | 0.00 | 0.00 | 25 | 1012.6 | |
| 20260508010033 | 23 | 0.0 | 0.0 | 0.00 | 0.00 | 0.00 | 23 | 1012.6 | |
| 20260508004537 | 23 | 0.0 | 0.0 | 0.00 | 0.00 | 0.00 | 23 | 1012.8 | |
| 20260508003037 | 23 | 0.0 | 0.0 | 0.00 | 0.00 | 0.00 | 22 | 1012.9 | |
| 20260508001534 | 23 | 0.0 | 0.0 | 0.00 | 0.00 | 0.00 | 24 | 1012.9 | |
| 20260508000033 | 23 | 0.0 | 0.0 | 0.00 | 0.00 | 0.00 | 26 | 1013.0 | |
| 20260507234532 | 23 | 0.0 | 0.0 | 0.00 | 0.00 | 0.00 | 22 | 1013.1 | |
| 20260507233036 | 24 | 0.0 | 0.0 | 0.00 | 0.00 | 0.00 | 24 | 1013.4 | |
| 20260507231533 | 25 | 0.0 | 0.0 | 0.00 | 0.00 | 0.00 | 22 | 1013.4 | |
| 20260507230033 | 24 | 0.0 | 0.0 | 0.00 | 0.00 | 0.00 | 22 | 1013.7 | |
| 20260507224534 | 25 | 0.0 | 0.0 | 0.00 | 0.00 | 0.00 | 23 | 1013.9 | |
| 20260507223032 | 25 | 0.0 | 0.0 | 0.00 | 0.00 | 0.00 | 23 | 1014.1 | |
| 20260507221533 | 25 | 0.0 | 0.0 | 0.00 | 0.00 | 0.00 | 23 | 1014.2 | |
| 20260507220031 | 25 | 0.0 | 0.0 | 0.00 | 0.00 | 0.00 | 22 | 1014.5 | |
| 20260507214545 | 25 | 0.0 | 0.0 | 0.00 | 0.00 | 0.00 | 23 | 1014.8 |